Change the Weather History Date:

Thursday, June 6, 2013

  Actual Average Record
Temperature  
Mean Temperature 62 °F -  
Max Temperature 76 °F 67 °F 78 °F (1997)
Min Temperature 49 °F 52 °F 41 °F (2006)
Degree Days  
Heating Degree Days 2    
Growing Degree Days 12 (Base 50)    
Moisture  
Dew Point 52 °F    
Average Humidity 69    
Maximum Humidity 94    
Minimum Humidity 32    
Precipitation  
Precipitation 0.00 in - - ()
Sea Level Pressure  
Sea Level Pressure 30.12 in    
Wind  
Wind Speed 7 mph ()    
Max Wind Speed 14 mph    
Max Gust Speed -    
Visibility 6.9 miles    
Events      
Averages and records for this station are not official NWS values.
T = Trace of Precipitation, MM = Missing Value Source: Averaged Metar Reports

Daily Weather History Graph

Daily Weather History Graph

Search for Another Location

Airport or City:

Trip Planner

Search our weather history database for the weather conditions in past years. The results will help you decide how hot, cold, wet, or windy it might be!

Date:

Astronomy

Jun. 06, 2013 Rise Set
Actual Time 5:24 AM CEST 9:57 PM CEST
Civil Twilight 4:37 AM CEST 10:44 PM CEST
Nautical Twilight 3:24 AM CEST 11:58 PM CEST
Astronomical Twilight 2:13 AM CEST 1:08 AM CEST
Moon 4:12 AM CEST (6/6) 7:52 PM CEST (6/6)
Length of Visible Light 18h 07m
Length of Day
16h 32m
Waning Crescent, 5% of the Moon is Illuminated
Jun 6
Waning Crescent
Jun 8
New
Jun 16
First Quarter
Jun 23
Full
Jun 30
Last Quarter

Hourly Weather History & Observations

Time (CEST) Temp. Dew Point Humidity Pressure Visibility Wind Dir Wind Speed Gust Speed Precip Events Conditions
12:25 AM 55.4 °F 48.2 °F 77% 30.12 in 6.2 mi NNE 6.9 mph - N/A   Unknown
12:55 AM 55.4 °F 48.2 °F 77% 30.12 in 6.2 mi NNE 6.9 mph - N/A   Unknown
1:25 AM 53.6 °F 48.2 °F 82% 30.12 in 6.2 mi NNE 4.6 mph - N/A   Unknown
1:55 AM 53.6 °F 48.2 °F 82% 30.12 in 6.2 mi NNE 5.8 mph - N/A   Unknown
2:00 AM 53 °F 48 °F 79% 30.13 in 16 mi NE 4.5 mph - -   Partly Cloudy
2:25 AM 51.8 °F 48.2 °F 88% 30.12 in 6.2 mi NNE 4.6 mph - N/A   Unknown
2:55 AM 51.8 °F 48.2 °F 88% 30.12 in 6.2 mi NNE 4.6 mph - N/A   Unknown
3:25 AM 51.8 °F 48.2 °F 88% 30.12 in 6.2 mi NNE 4.6 mph - N/A   Unknown
3:55 AM 51.8 °F 48.2 °F 88% 30.12 in 6.2 mi NNE 4.6 mph - N/A   Unknown
4:25 AM 51.8 °F 48.2 °F 88% 30.12 in 6.2 mi North 4.6 mph - N/A   Unknown
4:55 AM 50.0 °F 48.2 °F 94% 30.12 in 6.2 mi North 4.6 mph - N/A   Unknown
5:00 AM 50 °F 48 °F 90% 30.13 in 8 mi North 4.5 mph - -  
5:25 AM 50.0 °F 48.2 °F 94% 30.12 in 6.2 mi NNE 4.6 mph - N/A   Unknown
5:55 AM 51.8 °F 48.2 °F 88% 30.12 in 5.6 mi North 4.6 mph - N/A   Unknown
6:25 AM 51.8 °F 50.0 °F 94% 30.12 in 6.2 mi North 3.5 mph - N/A   Unknown
6:55 AM 53.6 °F 50.0 °F 88% 30.12 in 6.2 mi NNE 4.6 mph - N/A   Unknown
7:25 AM 55.4 °F 50.0 °F 82% 30.12 in 6.2 mi NNE 5.8 mph - N/A   Unknown
7:55 AM 55.4 °F 50.0 °F 82% 30.12 in 6.2 mi NE 9.2 mph - N/A   Unknown
8:00 AM 56 °F 51 °F 78% 30.14 in 9 mi NNE 8.9 mph - -   Partly Cloudy
8:25 AM 57.2 °F 51.8 °F 82% 30.12 in 6.2 mi NE 9.2 mph - N/A   Unknown
8:55 AM 59.0 °F 53.6 °F 82% 30.12 in 6.2 mi NE 10.4 mph - N/A   Unknown
9:25 AM 60.8 °F 53.6 °F 77% 30.12 in 6.2 mi NE 9.2 mph - N/A   Unknown
9:55 AM 62.6 °F 53.6 °F 72% 30.12 in 6.2 mi NE 9.2 mph - N/A   Unknown
10:25 AM 64.4 °F 53.6 °F 68% 30.12 in 6.2 mi NE 9.2 mph - N/A   Unknown
10:55 AM 66.2 °F 53.6 °F 64% 30.12 in 6.2 mi NNE 10.4 mph - N/A   Unknown
11:00 AM 66 °F 54 °F 56% 30.14 in 11 mi NNE 11.2 mph - -  
11:25 AM 68.0 °F 53.6 °F 60% 30.12 in 6.2 mi NE 9.2 mph - N/A   Unknown
11:55 AM 69.8 °F 53.6 °F 56% 30.12 in 6.2 mi NE 11.5 mph - N/A   Unknown
12:25 PM 69.8 °F 53.6 °F 56% 30.12 in 6.2 mi NE 10.4 mph - N/A   Unknown
12:55 PM 71.6 °F 53.6 °F 53% 30.12 in 6.2 mi Variable 10.4 mph - N/A   Unknown
1:25 PM 73.4 °F 53.6 °F 50% 30.12 in 6.2 mi NNE 9.2 mph - N/A   Unknown
1:55 PM 73.4 °F 53.6 °F 50% 30.12 in 6.2 mi NE 12.7 mph - N/A   Unknown
2:00 PM 74 °F 53 °F 37% 30.14 in 17 mi NE 13.4 mph - -   Partly Cloudy
2:25 PM 75.2 °F 51.8 °F 44% 30.12 in 6.2 mi NNE 12.7 mph - N/A   Unknown
2:55 PM 73.4 °F 51.8 °F 47% 30.12 in 6.2 mi NE 13.8 mph - N/A   Unknown
3:25 PM 73.4 °F 51.8 °F 47% 30.12 in 6.2 mi NE 10.4 mph - N/A   Unknown
3:55 PM 75.2 °F 53.6 °F 47% 30.12 in 6.2 mi NNE 8.1 mph - N/A   Unknown
4:25 PM 75.2 °F 53.6 °F 47% 30.12 in 6.2 mi NNE 9.2 mph - N/A   Unknown
4:55 PM 77.0 °F 51.8 °F 41% 30.12 in 6.2 mi NNE 8.1 mph - N/A   Unknown
5:00 PM 75 °F 51 °F 32% 30.13 in 12 mi NNE 6.7 mph - -  
5:25 PM 75.2 °F 51.8 °F 44% 30.12 in 6.2 mi NE 9.2 mph - N/A   Unknown
5:55 PM 75.2 °F 53.6 °F 47% 30.09 in 6.2 mi NNE 8.1 mph - N/A   Unknown
6:25 PM 75.2 °F 55.4 °F 50% 30.09 in 6.2 mi North 9.2 mph - N/A   Unknown
6:55 PM 73.4 °F 57.2 °F 57% 30.09 in 6.2 mi North 8.1 mph - N/A   Unknown
7:25 PM 71.6 °F 57.2 °F 60% 30.09 in 6.2 mi North 9.2 mph - N/A   Unknown
7:55 PM 71.6 °F 59.0 °F 64% 30.12 in 6.2 mi North 6.9 mph - N/A   Unknown
8:00 PM 71 °F 58 °F 53% 30.13 in 9 mi North 8.9 mph - -   Partly Cloudy
8:25 PM 69.8 °F 57.2 °F 64% 30.12 in 6.2 mi NNE 10.4 mph - N/A   Unknown
8:55 PM 68.0 °F 57.2 °F 68% 30.12 in 6.2 mi NNE 9.2 mph - N/A   Unknown
9:25 PM 66.2 °F 57.2 °F 73% 30.12 in 6.2 mi NNE 9.2 mph - N/A   Unknown
9:55 PM 64.4 °F 55.4 °F 73% 30.12 in 6.2 mi North 5.8 mph - N/A   Unknown
10:25 PM 62.6 °F 55.4 °F 77% 30.15 in 6.2 mi North 5.8 mph - N/A   Unknown
10:55 PM 60.8 °F 55.4 °F 82% 30.15 in 6.2 mi NNE 6.9 mph - N/A   Unknown
11:00 PM 61 °F 55 °F 73% 30.17 in 9 mi North 6.7 mph - -  
11:25 PM 60.8 °F 53.6 °F 77% 30.15 in 6.2 mi NNE 8.1 mph - N/A   Unknown
11:55 PM 59.0 °F 53.6 °F 82% 30.15 in 6.2 mi NNE 6.9 mph - N/A   Unknown